• In Belarus
  • List of Countries
  • For 7 days
  • Water Temperature
  • Satellite Maps
  • Weather Map
  • Weather Widgets
  • user-avatar
    Login

    Hourly Weather San Pedro Sula

    Today, 17 November, Saturday

    Time Temperature Precipitation Wind Pressure Humidity
    00:00 +20°C° 0 mm 2 mps 747 mmHg 93%
    01:00 +20°C° 0.3 mm 2 mps 747 mmHg 93%
    02:00 +20°C° 0.3 mm 2 mps 747 mmHg 94%
    03:00 +20°C° 0.3 mm 2 mps 747 mmHg 95%
    04:00 +20°C° 0.4 mm 2 mps 747 mmHg 95%
    05:00 +20°C° 0.4 mm 2 mps 747 mmHg 95%
    06:00 +20°C° 0.4 mm 2 mps 748 mmHg 95%
    07:00 +21°C° 0.4 mm 2 mps 748 mmHg 94%
    08:00 +21°C° 0.4 mm 2 mps 748 mmHg 93%
    09:00 +21°C° 0.4 mm 2 mps 748 mmHg 92%
    10:00 +23°C° 0.2 mm 2 mps 748 mmHg 89%
    11:00 +24°C° 0.2 mm 2 mps 748 mmHg 87%
    12:00 +24°C° 0.2 mm 2 mps 747 mmHg 84%
    13:00 +24°C° 0.2 mm 2 mps 747 mmHg 83%
    14:00 +25°C° 0.2 mm 2 mps 746 mmHg 81%
    15:00 +25°C° 0.2 mm 2 mps 746 mmHg 79%
    16:00 +24°C° 0.2 mm 2 mps 746 mmHg 83%
    17:00 +23°C° 0.2 mm 2 mps 746 mmHg 87%
    18:00 +21°C° 0.2 mm 2 mps 746 mmHg 90%
    19:00 +21°C° 0.1 mm 2 mps 747 mmHg 90%
    20:00 +21°C° 0.1 mm 2 mps 747 mmHg 91%
    21:00 +21°C° 0.1 mm 2 mps 748 mmHg 91%
    22:00 +21°C° 0 mm 2 mps 747 mmHg 91%
    23:00 +21°C° 0 mm 2 mps 747 mmHg 91%

    Tomorrow, 18 November, Sunday

    Time Temperature Precipitation Wind Pressure Humidity
    00:00 +21°C° 0 mm 2 mps 747 mmHg 91%
    01:00 +21°C° 0.1 mm 2 mps 747 mmHg 92%
    02:00 +21°C° 0.1 mm 2 mps 746 mmHg 92%
    03:00 +21°C° 0.1 mm 2 mps 746 mmHg 92%
    04:00 +22°C° 0.1 mm 1 mps 746 mmHg 92%
    05:00 +22°C° 0.1 mm 1 mps 746 mmHg 92%
    06:00 +22°C° 0.1 mm 1 mps 747 mmHg 92%
    07:00 +24°C° 0 mm 1 mps 747 mmHg 86%
    08:00 +26°C° 0 mm 1 mps 747 mmHg 81%
    09:00 +27°C° 0 mm 1 mps 748 mmHg 75%
    10:00 +28°C° 0.1 mm 1 mps 747 mmHg 73%
    11:00 +29°C° 0.1 mm 2 mps 747 mmHg 70%
    12:00 +30°C° 0.1 mm 2 mps 747 mmHg 68%
    13:00 +30°C° 0.5 mm 2 mps 746 mmHg 72%
    14:00 +29°C° 0.5 mm 2 mps 746 mmHg 76%
    15:00 +29°C° 0.5 mm 2 mps 745 mmHg 81%
    16:00 +28°C° 0.9 mm 2 mps 745 mmHg 86%
    17:00 +26°C° 0.9 mm 2 mps 745 mmHg 92%
    18:00 +25°C° 0.9 mm 2 mps 746 mmHg 97%
    19:00 +25°C° 0.6 mm 1 mps 746 mmHg 98%
    20:00 +24°C° 0.6 mm 1 mps 747 mmHg 98%
    21:00 +24°C° 0.6 mm 1 mps 747 mmHg 99%
    22:00 +24°C° 0.6 mm 1 mps 747 mmHg 99%
    23:00 +24°C° 0.6 mm 1 mps 747 mmHg 99%

    Day after tomorrow, 19 November, Monday

    Time Temperature Precipitation Wind Pressure Humidity
    00:00 +24°C° 0.6 mm 1 mps 747 mmHg 99%
    01:00 +24°C° 0.7 mm 1 mps 746 mmHg 99%
    02:00 +24°C° 0.7 mm 1 mps 746 mmHg 98%
    03:00 +24°C° 0.7 mm 1 mps 746 mmHg 98%
    04:00 +24°C° 0.2 mm 1 mps 746 mmHg 98%
    05:00 +22°C° 0.2 mm 0 mps 746 mmHg 98%
    06:00 +21°C° 0.2 mm 0 mps 746 mmHg 99%
    07:00 +23°C° 0.1 mm 0 mps 747 mmHg 92%
    08:00 +27°C° 0.1 mm 1 mps 747 mmHg 85%
    09:00 +29°C° 0.1 mm 1 mps 747 mmHg 79%
    10:00 +30°C° 0 mm 1 mps 747 mmHg 73%
    11:00 +30°C° 0 mm 1 mps 746 mmHg 68%
    12:00 +31°C° 0 mm 2 mps 746 mmHg 63%
    13:00 +31°C° 0.1 mm 2 mps 745 mmHg 66%
    14:00 +30°C° 0.1 mm 2 mps 744 mmHg 69%
    15:00 +30°C° 0.1 mm 2 mps 743 mmHg 72%
    16:00 +28°C° 0.2 mm 2 mps 744 mmHg 79%
    17:00 +27°C° 0.2 mm 2 mps 744 mmHg 87%
    18:00 +25°C° 0.2 mm 1 mps 745 mmHg 94%
    19:00 +25°C° 0.3 mm 1 mps 745 mmHg 95%
    20:00 +25°C° 0.3 mm 1 mps 746 mmHg 96%
    21:00 +25°C° 0.3 mm 1 mps 747 mmHg 97%
    22:00 +25°C° 0.1 mm 1 mps 747 mmHg 98%
    23:00 +24°C° 0.1 mm 1 mps 746 mmHg 98%

    20 November, Tuesday

    Time Temperature Precipitation Wind Pressure Humidity
    00:00 +24°C° 0.1 mm 1 mps 746 mmHg 98%
    01:00 +22°C° 0.1 mm 0 mps 746 mmHg 98%
    02:00 +22°C° 0.1 mm 0 mps 745 mmHg 98%
    03:00 +22°C° 0.1 mm 0 mps 745 mmHg 98%
    04:00 +22°C° 0.2 mm 0 mps 745 mmHg 98%
    05:00 +22°C° 0.2 mm 0 mps 746 mmHg 98%
    06:00 +22°C° 0.2 mm 0 mps 746 mmHg 97%
    07:00 +23°C° 0.1 mm 0 mps 746 mmHg 92%
    08:00 +27°C° 0.1 mm 1 mps 747 mmHg 88%
    09:00 +28°C° 0.1 mm 1 mps 748 mmHg 83%
    10:00 +29°C° 0.1 mm 1 mps 747 mmHg 78%
    11:00 +30°C° 0.1 mm 1 mps 747 mmHg 73%
    12:00 +31°C° 0.1 mm 2 mps 746 mmHg 68%
    13:00 +30°C° 0.4 mm 2 mps 745 mmHg 71%
    14:00 +30°C° 0.4 mm 2 mps 745 mmHg 75%
    15:00 +29°C° 0.4 mm 2 mps 744 mmHg 78%
    16:00 +28°C° 0.2 mm 2 mps 745 mmHg 84%
    17:00 +27°C° 0.2 mm 2 mps 745 mmHg 90%
    18:00 +25°C° 0.2 mm 1 mps 746 mmHg 95%
    19:00 +25°C° 0.2 mm 1 mps 746 mmHg 96%
    20:00 +25°C° 0.2 mm 1 mps 747 mmHg 97%
    21:00 +25°C° 0.2 mm 1 mps 747 mmHg 98%
    22:00 +25°C° 0.4 mm 1 mps 747 mmHg 98%
    23:00 +24°C° 0.4 mm 1 mps 747 mmHg 98%

    21 November, Wednesday

    Time Temperature Precipitation Wind Pressure Humidity
    00:00 +24°C° 0.4 mm 1 mps 747 mmHg 98%
    01:00 +24°C° 0.3 mm 1 mps 747 mmHg 98%
    02:00 +24°C° 0.3 mm 1 mps 746 mmHg 98%
    03:00 +24°C° 0.3 mm 1 mps 746 mmHg 98%
    04:00 +22°C° 0.2 mm 0 mps 746 mmHg 98%
    05:00 +22°C° 0.2 mm 0 mps 747 mmHg 98%
    06:00 +22°C° 0.2 mm 0 mps 747 mmHg 98%
    07:00 +24°C° 0.1 mm 0 mps 748 mmHg 91%
    08:00 +25°C° 0.1 mm 0 mps 748 mmHg 84%
    09:00 +29°C° 0.1 mm 1 mps 749 mmHg 77%
    10:00 +30°C° 0.1 mm 1 mps 748 mmHg 73%
    11:00 +30°C° 0.1 mm 1 mps 747 mmHg 68%
    12:00 +31°C° 0.1 mm 2 mps 747 mmHg 63%
    13:00 +30°C° 0.4 mm 2 mps 746 mmHg 68%
    14:00 +30°C° 0.4 mm 2 mps 745 mmHg 74%
    15:00 +29°C° 0.4 mm 2 mps 745 mmHg 79%
    16:00 +28°C° 0.2 mm 2 mps 745 mmHg 84%
    17:00 +26°C° 0.2 mm 2 mps 746 mmHg 89%
    18:00 +25°C° 0.2 mm 1 mps 746 mmHg 94%
    19:00 +25°C° 0.2 mm 1 mps 747 mmHg 95%
    20:00 +25°C° 0.2 mm 1 mps 747 mmHg 96%
    21:00 +24°C° 0.2 mm 1 mps 748 mmHg 97%
    22:00 +24°C° 0.3 mm 1 mps 747 mmHg 98%
    23:00 +24°C° 0.3 mm 1 mps 747 mmHg 98%

    22 November, Thursday

    Time Temperature Precipitation Wind Pressure Humidity
    00:00 +24°C° 0.3 mm 1 mps 747 mmHg 98%
    01:00 +24°C° 0.2 mm 1 mps 747 mmHg 98%
    02:00 +22°C° 0.2 mm 0 mps 746 mmHg 98%
    03:00 +22°C° 0.2 mm 0 mps 746 mmHg 98%
    04:00 +22°C° 0.1 mm 0 mps 746 mmHg 98%
    05:00 +24°C° 0.1 mm 1 mps 746 mmHg 98%
    06:00 +23°C° 0.1 mm 1 mps 747 mmHg 98%
    07:00 +25°C° 0.1 mm 1 mps 747 mmHg 91%
    08:00 +27°C° 0.1 mm 1 mps 747 mmHg 83%
    09:00 +29°C° 0.1 mm 1 mps 747 mmHg 76%
    10:00 +30°C° 0.1 mm 1 mps 747 mmHg 70%
    11:00 +31°C° 0.1 mm 1 mps 746 mmHg 65%
    12:00 +32°C° 0.1 mm 2 mps 746 mmHg 59%
    13:00 +31°C° 0.2 mm 2 mps 745 mmHg 63%
    14:00 +30°C° 0.2 mm 2 mps 744 mmHg 68%
    15:00 +30°C° 0.2 mm 2 mps 744 mmHg 72%
    16:00 +28°C° 0.3 mm 2 mps 744 mmHg 80%
    17:00 +27°C° 0.3 mm 2 mps 745 mmHg 87%
    18:00 +25°C° 0.3 mm 2 mps 745 mmHg 95%
    19:00 +25°C° 0.2 mm 1 mps 746 mmHg 96%
    20:00 +25°C° 0.2 mm 1 mps 746 mmHg 97%
    21:00 +24°C° 0.2 mm 1 mps 747 mmHg 98%
    22:00 +24°C° 0.1 mm 1 mps 746 mmHg 98%
    23:00 +24°C° 0.1 mm 1 mps 746 mmHg 98%
    Show more